[[{"header":{"parameterUnit":"m.s-1","parameterCategory":1,"la1":30.2991,"la2":30.254,"lo1":-89.0895,"lo2":-89.0444,"dy":0.0017,"dx":0.0017,"nx":28,"ny":28,"refTime":"2023-09-02T03:00:00:Z","depth":0,"parameterNumber":2,"parameterNumberName":"U-component_of_WINDS"},"data":[0,0,0,0,0,0,0,0,0,0,0,0,0,0,0,0,0,0,0,0,0,0,0,0,0,0,0,0,0,0,0,0,0,0,0,0,0,0,0,0,0,0,0,0,0,0,0,0,0,0,0,0,0,0,0,0,0,0,-3.6093,-3.6094,0,-3.6223,-3.6224,-3.6226,-3.6233,-3.6232,-3.623,-3.6229,-3.636,-3.6365,-3.637,0,0,0,0,0,0,0,0,0,0,0,0,0,-3.5849,-3.5853,-3.6092,-3.6094,-3.6096,-3.6223,-3.6225,-3.6226,-3.6234,-3.6232,-3.623,-3.6228,-3.6359,-3.6365,-3.637,0,0,0,0,0,0,0,0,0,0,0,0,0,-3.5964,-3.5855,-3.6092,-3.6115,-3.6118,-3.6222,-3.6225,-3.6227,-3.6234,-3.6232,-3.6229,-3.6227,-3.6357,-3.6364,-3.6371,-3.6461,0,0,-3.6394,-3.6397,0,0,0,0,0,0,0,0,-3.5958,-3.5973,-3.611,-3.6113,-3.6117,-3.621,-3.6187,-3.6305,-3.6234,-3.619,-3.6229,-3.6226,-3.6312,-3.6323,-3.6352,-3.6468,-3.6473,-3.6394,-3.6399,-3.6402,-3.6404,0,0,0,0,0,0,0,-3.595,-3.5968,-3.6144,-3.6112,-3.6116,-3.6118,-3.6132,-3.6209,-3.6262,-3.6194,-3.6194,-3.621,-3.6313,-3.6345,-3.6355,-3.6475,-3.6394,-3.6401,-3.6405,-3.6408,-3.6674,-3.6677,0,0,0,0,0,0,-3.5938,-3.5961,-3.614,-3.6148,-3.603,-3.6124,-3.614,-3.6182,-3.6261,-3.6271,-3.6212,-3.621,-3.6334,-3.6347,-3.636,-3.6473,-3.6402,-3.6409,-3.6413,-3.6671,-3.6675,-3.6677,0,0,0,0,0,0,-3.5932,-3.5954,-3.6135,-3.6055,-3.6078,-3.6131,-3.6178,-3.6186,-3.6217,-3.6275,-3.6284,-3.6234,-3.6332,-3.635,-3.6437,-3.6477,-3.6412,-3.6419,-3.6668,-3.6672,-3.6676,-3.6698,0,0,0,0,0,0,-3.5925,-3.5952,-3.5986,-3.6056,-3.6082,-3.621,-3.6181,-3.619,-3.623,-3.6229,-3.6298,-3.6308,-3.6332,-3.6426,-3.6444,-3.6486,-3.6424,-3.6665,-3.667,-3.6675,-3.6694,-3.6702,-3.6709,0,0,0,0,0,-3.5917,-3.5986,-3.5988,-3.601,-3.6127,-3.6212,-3.6227,-3.6254,-3.6233,-3.6269,-3.6306,-3.6305,-3.647,-3.6435,-3.6455,-3.65,-3.6662,-3.6669,-3.6674,-3.669,-3.6701,-3.6709,0,0,0,0,0,0,-3.5919,-3.5996,-3.5999,-3.6093,-3.6146,-3.6213,-3.6258,-3.6264,-3.6323,-3.6319,-3.635,-3.6365,-3.6452,-3.6485,-3.6444,-3.6593,-3.6564,-3.6574,-3.6569,-3.6579,-3.6587,-3.6577,-3.6431,0,0,0,0,0,-3.5931,-3.5994,-3.6057,-3.6134,-3.6161,-3.6205,-3.6243,-3.626,-3.6315,-3.6338,-3.6381,-3.6435,-3.6499,-3.6541,-3.6603,-3.6698,-3.6715,-3.674,-3.6747,-3.6753,-3.6762,-3.6818,-3.683,-3.6697,-3.6697,-3.6697,0,0,-3.5955,-3.6005,-3.6042,-3.6136,-3.6179,-3.6244,-3.6224,-3.6292,-3.6341,-3.6348,-3.6434,-3.6468,-3.653,-3.6623,-3.6666,-3.6653,-3.6803,-3.6761,-3.6765,-3.6771,-3.6825,-3.6838,-3.6849,-3.6701,-3.67,-3.67,0,0,-3.6033,-3.6076,-3.6146,-3.6191,-3.6257,-3.6286,-3.6303,-3.637,-3.6394,-3.648,-3.6488,-3.6546,-3.6655,-3.67,-3.6737,-3.6835,-3.6837,-3.6854,-3.6894,-3.6948,-3.6959,-3.6968,-3.7005,-3.7018,-3.6862,-3.6862,-3.6862,0,-3.6055,-3.6153,-3.6181,-3.6251,-3.6293,-3.6303,-3.6375,-3.6416,-3.6499,-3.6528,-3.6512,-3.6651,-3.6693,-3.6798,-3.6822,-3.6851,-3.6872,-3.6846,-3.6955,-3.6965,-3.6974,-3.701,-3.7023,-3.6864,-3.6864,-3.6864,-3.6864,0,-3.6178,-3.6246,-3.6294,-3.6376,-3.6423,-3.6493,-3.6532,-3.6576,-3.6589,-3.6621,-3.671,-3.6762,-3.6836,-3.6861,-3.6874,-3.6969,-3.6959,-3.6949,-3.692,-3.6988,-3.7022,-3.7036,-3.6867,-3.6866,-3.6866,-3.6865,0,0,-3.626,-3.6358,-3.6376,-3.6414,-3.6489,-3.6542,-3.6613,-3.6687,-3.6725,-3.6782,-3.6843,-3.6936,-3.6929,-3.6971,-3.6988,-3.7035,-3.7112,-3.702,-3.7022,-3.7037,-3.7223,-3.7231,-3.7246,-3.7114,-3.7117,-3.7119,-3.7218,0,-3.6348,-3.6476,-3.6504,-3.6615,-3.6679,-3.6691,-3.6753,-3.6806,-3.6838,-3.6897,-3.6932,-3.6998,-3.6981,-3.7008,-3.7055,-3.7093,-3.715,-3.7086,-3.7173,-3.7175,-3.7158,-3.7264,-3.7272,-3.7363,-3.7231,-3.7234,-3.7235,0,-3.6467,-3.6529,-3.6646,-3.6715,-3.6743,-3.6798,-3.6869,-3.6925,-3.6986,-3.7006,-3.7055,-3.7068,-3.7144,-3.7111,-3.7216,-3.7172,-3.7209,-3.7233,-3.7238,-3.7248,-3.721,-3.7278,-3.7393,-3.7407,-3.7256,-3.7254,-3.7253,0,-3.6517,-3.663,-3.6715,-3.6747,-3.6829,-3.6868,-3.6904,-3.6963,-3.7006,-3.7068,-3.7096,-3.7165,-3.7204,-3.7257,-3.7289,-3.7262,-3.7393,-3.7362,-3.7413,-3.7412,-3.744,-3.7438,-3.7564,-3.7462,-3.7461,-3.7461,-3.7461,0,-3.6613,-3.6685,-3.674,-3.6792,-3.6873,-3.6906,-3.6985,-3.7021,-3.7073,-3.7134,-3.7147,-3.7203,-3.7242,-3.7304,-3.7329,-3.7414,-3.7431,-3.7449,-3.7456,-3.7449,-3.7447,-3.7475,-3.747,-3.7465,-3.7464,-3.7463,-3.7463,0,-3.6684,-3.6723,-3.6817,-3.6888,-3.6907,-3.6964,-3.7025,-3.7077,-3.7109,-3.7185,-3.7205,-3.7256,-3.733,-3.7367,-3.7458,-3.7476,-3.7572,-3.7573,-3.7552,-3.7555,-3.7603,-3.7599,-3.7752,-3.7775,-3.7656,-3.7657,-3.7658,0,-3.6743,-3.6798,-3.6876,-3.6918,-3.6955,-3.7022,-3.7067,-3.7101,-3.7147,-3.7222,-3.7265,-3.734,-3.7402,-3.7519,-3.7564,-3.7635,-3.7639,-3.7688,-3.765,-3.7643,-3.7642,-3.7639,-3.7646,-3.7695,-3.7696,-3.7697,-3.7698,0,-3.6844,-3.6861,-3.6925,-3.6998,-3.7051,-3.7109,-3.7166,-3.72,-3.7243,-3.7295,-3.7371,-3.7419,-3.7514,-3.7589,-3.7663,-3.77,-3.7707,-3.771,-3.7726,-3.772,-3.7706,-3.7716,-3.7572,-3.7706,-3.7705,-3.7705,-3.7704,-3.7704,-3.6912,-3.6963,-3.7026,-3.7098,-3.7145,-3.7199,-3.7252,-3.7292,-3.7356,-3.7437,-3.7453,-3.7535,-3.7596,-3.7697,-3.7737,-3.7801,-3.7791,-3.7813,-3.7819,-3.7824,-3.7828,-3.7695,-3.7815,-3.7815,-3.7814,-3.7814,-3.7814,0,-3.7015,-3.7057,-3.7123,-3.7204,-3.7261,-3.7263,-3.7327,-3.7375,-3.7446,-3.7503,-3.7565,-3.7654,-3.7727,-3.7779,-3.7853,-3.7895,-3.7901,-3.7914,-3.7912,-3.7921,-3.7832,-3.7812,-3.7909,-3.7909,-3.7909,-3.7908,-3.7908,-3.7908,-3.7076,-3.7163,-3.7189,-3.73,-3.7341,-3.7422,-3.7459,-3.7509,-3.7555,-3.7654,-3.7716,-3.7749,-3.7805,-3.7884,-3.7952,-3.7965,-3.7993,-3.8007,-3.802,-3.7936,-3.7926,-3.7917,-3.7898,-3.8012,-3.8012,-3.8104,-3.8105,-3.8105]},{"header":{"parameterUnit":"m.s-1","parameterCategory":1,"la1":30.2991,"la2":30.254,"lo1":-89.0895,"lo2":-89.0444,"dy":0.0017,"dx":0.0017,"nx":28,"ny":28,"refTime":"2023-09-02T03:00:00:Z","depth":0,"parameterNumber":3,"parameterNumberName":"V-component_of_WINDS"},"data":[0,0,0,0,0,0,0,0,0,0,0,0,0,0,0,0,0,0,0,0,0,0,0,0,0,0,0,0,0,0,0,0,0,0,0,0,0,0,0,0,0,0,0,0,0,0,0,0,0,0,0,0,0,0,0,0,0,0,-0.899,-0.8993,0,-0.9208,-0.9211,-0.9213,-0.9267,-0.9266,-0.9264,-0.9263,-0.9495,-0.9502,-0.951,0,0,0,0,0,0,0,0,0,0,0,0,0,-0.8628,-0.8634,-0.899,-0.8993,-0.8996,-0.9208,-0.9211,-0.9214,-0.9267,-0.9266,-0.9264,-0.9262,-0.9493,-0.9501,-0.951,0,0,0,0,0,0,0,0,0,0,0,0,0,-0.881,-0.8636,-0.899,-0.9048,-0.9055,-0.9207,-0.9211,-0.9215,-0.9268,-0.9265,-0.9263,-0.9261,-0.949,-0.9501,-0.9512,-0.9625,0,0,-0.9546,-0.9551,0,0,0,0,0,0,0,0,-0.8799,-0.8823,-0.9036,-0.9044,-0.9052,-0.9208,-0.9168,-0.9353,-0.9268,-0.9187,-0.9263,-0.926,-0.9402,-0.942,-0.9466,-0.9636,-0.9646,-0.9547,-0.9554,-0.9559,-0.9562,0,0,0,0,0,0,0,-0.8787,-0.8814,-0.9077,-0.9039,-0.9049,-0.9065,-0.9089,-0.9204,-0.9304,-0.9194,-0.9198,-0.9223,-0.9406,-0.9455,-0.9472,-0.9649,-0.9547,-0.9557,-0.9564,-0.9568,-0.9924,-0.9927,0,0,0,0,0,0,-0.8763,-0.8803,-0.907,-0.9083,-0.8917,-0.9073,-0.91,-0.916,-0.9303,-0.9323,-0.9225,-0.9225,-0.9437,-0.9459,-0.948,-0.9625,-0.9559,-0.9569,-0.9576,-0.9922,-0.9925,-0.9928,0,0,0,0,0,0,-0.8755,-0.8786,-0.9061,-0.8944,-0.8981,-0.9082,-0.915,-0.9166,-0.9215,-0.9326,-0.9345,-0.9256,-0.9436,-0.9465,-0.9588,-0.9633,-0.9575,-0.9585,-0.9918,-0.9923,-0.9926,-0.9912,0,0,0,0,0,0,-0.8744,-0.8783,-0.8825,-0.8945,-0.8986,-0.9163,-0.9152,-0.9172,-0.9233,-0.9236,-0.9361,-0.9379,-0.9437,-0.9571,-0.96,-0.9648,-0.9594,-0.9915,-0.992,-0.9925,-0.9909,-0.9915,-0.992,0,0,0,0,0,-0.8731,-0.8814,-0.8827,-0.8859,-0.9041,-0.9165,-0.919,-0.9251,-0.9237,-0.9282,-0.9353,-0.9376,-0.9622,-0.9583,-0.9616,-0.9668,-0.9913,-0.9919,-0.9925,-0.9906,-0.9914,-0.992,0,0,0,0,0,0,-0.8701,-0.8831,-0.8847,-0.897,-0.9056,-0.9174,-0.9233,-0.9257,-0.9351,-0.9349,-0.9424,-0.9452,-0.9571,-0.9632,-0.9586,-0.9786,-0.9768,-0.9781,-0.9743,-0.975,-0.9756,-0.9741,-0.9603,0,0,0,0,0,-0.8707,-0.8794,-0.8905,-0.9003,-0.9045,-0.9131,-0.9187,-0.9227,-0.932,-0.9358,-0.9438,-0.953,-0.9628,-0.9692,-0.9789,-0.9916,-0.9946,-0.9968,-0.9973,-0.9977,-0.9989,-1.0063,-1.0075,-0.9948,-0.9948,-0.9947,0,0,-0.8724,-0.8806,-0.8857,-0.8999,-0.907,-0.9162,-0.9162,-0.9258,-0.9328,-0.9374,-0.9495,-0.9557,-0.9665,-0.9791,-0.9851,-0.9845,-1.003,-0.9985,-0.9987,-0.9997,-1.0071,-1.0083,-1.0093,-0.9952,-0.9951,-0.995,0,0,-0.8802,-0.8871,-0.8962,-0.9032,-0.9138,-0.9195,-0.9216,-0.933,-0.9372,-0.9495,-0.9531,-0.9616,-0.9783,-0.9859,-0.9919,-1.0023,-1.0049,-1.0053,-1.0084,-1.0155,-1.0165,-1.0174,-1.0215,-1.0228,-1.0063,-1.0063,-1.0063,0,-0.8811,-0.8948,-0.9006,-0.9101,-0.9164,-0.9204,-0.9299,-0.9365,-0.9498,-0.9542,-0.9532,-0.9743,-0.9818,-0.9964,-0.9989,-1.0035,-1.0065,-1.0041,-1.0158,-1.0168,-1.0178,-1.0217,-1.0232,-1.0063,-1.0063,-1.0063,-1.0063,0,-0.8955,-0.9049,-0.9109,-0.9234,-0.9303,-0.9397,-0.9472,-0.9535,-0.9568,-0.9626,-0.9751,-0.9842,-0.9958,-0.9995,-1.0029,-1.0146,-1.0139,-1.0142,-1.0127,-1.0189,-1.0228,-1.0243,-1.0063,-1.0063,-1.0063,-1.0063,0,0,-0.9024,-0.9177,-0.9199,-0.9257,-0.9376,-0.9451,-0.9547,-0.9658,-0.9712,-0.9802,-0.9887,-1.0026,-1.003,-1.0098,-1.0141,-1.0203,-1.0283,-1.02,-1.0203,-1.0215,-1.0421,-1.0421,-1.0437,-1.0298,-1.0302,-1.0304,-1.0413,0,-0.9119,-0.929,-0.9345,-0.9489,-0.9578,-0.9617,-0.9701,-0.9785,-0.9841,-0.9927,-0.999,-1.0089,-1.0084,-1.0126,-1.0189,-1.026,-1.0326,-1.0252,-1.0383,-1.0387,-1.0359,-1.0457,-1.0457,-1.0556,-1.0429,-1.0431,-1.0433,0,-0.9255,-0.9344,-0.9496,-0.9604,-0.9643,-0.9718,-0.9824,-0.9904,-1.0001,-1.0037,-1.0112,-1.0149,-1.0254,-1.0228,-1.0376,-1.0324,-1.038,-1.0423,-1.0428,-1.0447,-1.0417,-1.0482,-1.0589,-1.0605,-1.0457,-1.0455,-1.0453,0,-0.9294,-0.9452,-0.9564,-0.9612,-0.9739,-0.9791,-0.9847,-0.9941,-1.0004,-1.0097,-1.0139,-1.0244,-1.0303,-1.0384,-1.045,-1.0424,-1.0592,-1.0571,-1.0629,-1.0628,-1.0667,-1.0664,-1.0789,-1.0695,-1.0695,-1.0695,-1.0694,0,-0.9398,-0.9491,-0.9583,-0.9653,-0.9758,-0.982,-0.9923,-0.9982,-1.0064,-1.0148,-1.0187,-1.0265,-1.0345,-1.0434,-1.0486,-1.0602,-1.0627,-1.0662,-1.0676,-1.0661,-1.0657,-1.0703,-1.0699,-1.0699,-1.0698,-1.0697,-1.0696,0,-0.9462,-0.9527,-0.9652,-0.9761,-0.9791,-0.9864,-0.996,-1.003,-1.0085,-1.0191,-1.0219,-1.0308,-1.0415,-1.0487,-1.0624,-1.0659,-1.0786,-1.0796,-1.0754,-1.0761,-1.0816,-1.0811,-1.0977,-1.1004,-1.0888,-1.0889,-1.089,0,-0.9526,-0.9598,-0.9714,-0.9771,-0.9826,-0.9918,-0.9982,-1.0045,-1.011,-1.0224,-1.0282,-1.039,-1.0481,-1.065,-1.073,-1.0835,-1.0851,-1.0901,-1.0868,-1.0851,-1.0857,-1.0853,-1.0862,-1.0908,-1.0909,-1.091,-1.0911,0,-0.9634,-0.9662,-0.9751,-0.9851,-0.9925,-1.0008,-1.0091,-1.0137,-1.0215,-1.0287,-1.0395,-1.0464,-1.0603,-1.0712,-1.0825,-1.0886,-1.0913,-1.092,-1.094,-1.0928,-1.0902,-1.092,-1.0773,-1.0917,-1.0916,-1.0916,-1.0916,-1.0915,-0.9703,-0.9769,-0.9861,-0.9959,-1.0027,-1.0103,-1.0175,-1.0238,-1.0328,-1.0445,-1.0476,-1.059,-1.0685,-1.0839,-1.0901,-1.0993,-1.0988,-1.1016,-1.1024,-1.1031,-1.1033,-1.0882,-1.1013,-1.1013,-1.1013,-1.1013,-1.1013,0,-0.9817,-0.9876,-0.9965,-1.0079,-1.0157,-1.017,-1.0262,-1.0328,-1.0426,-1.051,-1.0598,-1.0723,-1.0828,-1.0913,-1.1023,-1.108,-1.1095,-1.1107,-1.1106,-1.112,-1.1029,-1.1003,-1.1093,-1.1093,-1.1093,-1.1093,-1.1093,-1.1093,-0.9885,-0.9998,-1.0037,-1.0184,-1.0245,-1.0354,-1.0406,-1.0478,-1.0545,-1.0682,-1.0769,-1.0822,-1.0909,-1.1024,-1.1122,-1.1144,-1.1185,-1.1194,-1.1221,-1.1135,-1.1126,-1.1118,-1.1094,-1.1202,-1.1202,-1.1305,-1.1306,-1.1306]}]]